world map with CSK marked

CSK - Airport

This information may not be accurate or current and is not valid for navigation or flight planning. No warranty of fitness for any purpose is made or implied.

flag of Senegal

Donate via PayPal

Additional information is available on the NEW Great Circle Mapper

Location
City:  Cap Skirring, Ziguinchor, Senegal
Name:Cap Skirring Airport
ICAO / IATA:GOGS / CSK

Details
Type:Airport (Aerodrome, Airfield)
Use:Public/Civil
Latitude:12°24'37"N (12.410200)
Longitude:16°44'46"W (-16.746124)
Datum:WGS 1984
Elevation:52 ft (16 m)
Runways:1
Longest:6561 × 98 ft (2000 × 30 m)

Time
Timezone:UTC+0 (DST+2)
Local Time:

Weather
METAR:GOGS  041200Z 36006KT CAVOK 29/10 Q1013
TAF:GOGS  041130Z 0412/0512 32006KT CAVOK= TAF GOSS 041130Z 0412/0512 36008KT CAVOK

Related Locations
Nearby:
Farthest:NNB: 12313 mi / 19815 km
Santa Ana Island (Ghupuna) [Santa Ana Airport], SB

Find:

   beyond  
but within

Other Information
Maps:
Sources:

  


 


Great Circle Mapper   Great Circle Mapper
Great Circle Mapper FAQ   Great Circle Mapper FAQ
  Karl's Home Page
KLSē   KLSē Home
   GC on Facebook
Airlines of the World   Airlines of the World
Donate via PayPal


Copyright © 2004-2019, Karl L. Swartz. All rights reserved.
All trademarks mentioned herein belong to their respective owners.

Please see credits for attribution and copyright information.

Karl Swartz <karl@kls2.com>
  Powered by FreeBSD
Valid HTML 4.01!
Labeled with ICRA
hCard Microformat
Geo Microformat